Location: Newark
(45.5000°N, 11.4167°E)
Time: 03:27:39
(UTC+00:00)

Vanguard 3 - Pass Details

Date: 28 August 2019
Orbit: 508 x 3263 km, 33.4° (Epoch: 19 September)

Event Time Altitude Azimuth Distance (km) Brightness Sun altitude
Rises 17:53:56 0° 261° (W) 4,441 12.4 0.2°
Reaches altitude 10° 17:58:16 10° 247° (WSW) 2,956 11.0 -0.5°
Maximum altitude 18:03:01 20° 202° (SSW) 1,812 9.1 -1.3°
Drops below altitude 10° 18:06:31 10° 154° (SSE) 2,088 8.9 -1.9°
Sets 18:08:59 0° 136° (SE) 2,802 9.4 -2.3°
